Latest Coastal Weather Observations for Melbourne

IDV60701

Issued at 11:01 pm EDT Sunday 21 December 2014 (issued every 10 minutes, with the page automatically refreshed every 10 minutes)

About coastal observations | Map of coastal stations | Coastal observations for VIC | Marine services | Other Formats
Station Details ID: 086071 Name: MELBOURNE REGIONAL OFFICE Lat: -37.81 Lon: 144.97 Height: 31.15 m
Data from the previous 72 hours. | See also: Recent months at Melbourne
Date/Time
EDT
Temp

°C
Wind Pressure Rain
since 9am
mm
Weather Cloud Vis
km
Sea
Height
m
Swell
Dir
 
Speed
knots
Gust
knots
hPa Trend Height
m
Period
s
Dir
21/11:00pm 20.9 - - - 1014.0 - 0.0 - - - - - - -
21/10:30pm 23.0 - - - 1013.8 - 0.0 - - - - - - -
21/10:00pm 23.2 - - - 1013.5 - 0.0 - - - - - - -
21/09:30pm 23.9 - - - 1012.8 - 0.0 - - - - - - -
21/09:00pm 25.9 - - - 1012.0 - 0.0 - - - - - - -
21/08:30pm 26.9 - - - 1011.6 - 0.0 - - - - - - -
21/08:00pm 27.4 - - - 1011.1 - 0.0 - - - - - - -
21/07:30pm 27.4 - - - 1010.7 - 0.0 - - - - - - -
21/07:00pm 29.2 - - - 1010.4 - 0.0 - - - - - - -
21/06:30pm 29.0 - - - 1010.1 - 0.0 - - - - - - -
21/06:00pm 27.5 - - - 1010.2 - 0.0 - - - - - - -
21/05:30pm 29.3 - - - 1010.4 - 0.0 - - - - - - -
21/05:00pm 32.5 - - - 1010.2 - 0.0 - - - - - - -
21/04:30pm 32.2 - - - 1010.6 - 0.0 - - - - - - -
21/04:00pm 33.3 - - - 1010.7 - 0.0 - - - - - - -
21/03:30pm 32.3 - - - 1010.9 - 0.0 - - - - - - -
21/03:00pm 32.1 - - - 1011.4 - 0.0 - - - - - - -
21/02:30pm 31.7 - - - 1011.9 - 0.0 - - - - - - -
21/02:00pm 31.1 - - - 1012.4 - 0.0 - - - - - - -
21/01:30pm 29.1 - - - 1012.8 - 0.0 - - - - - - -
21/01:00pm 29.7 - - - 1013.0 - 0.0 - - - - - - -
21/12:30pm 29.4 - - - 1013.3 - 0.0 - - - - - - -
21/12:00pm 27.0 - - - 1013.5 - 0.0 - - - - - - -
21/11:30am 28.2 - - - 1013.7 - 0.0 - - - - - - -
21/11:00am 26.9 - - - 1013.8 - 0.0 - - - - - - -
21/10:30am 23.9 - - - 1013.8 - 0.0 - - - - - - -
21/10:00am 22.3 - - - 1014.1 - 0.0 - - - - - - -
21/09:30am 20.4 - - - 1014.7 - 0.0 - - - - - - -
21/09:00am 19.2 - - - 1014.6 - 0.0 - - - - - - -
21/08:30am 17.7 - - - 1014.9 - 0.0 - - - - - - -
21/08:00am 16.3 - - - 1014.7 - 0.0 - - - - - - -
21/07:30am 14.7 - - - 1015.2 - 0.0 - - - - - - -
21/07:00am 13.9 - - - 1015.2 - 0.0 - - - - - - -
21/06:30am 13.7 - - - 1015.1 - 0.0 - - - - - - -
21/06:00am 14.1 - - - 1014.6 - 0.0 - - - - - - -
21/05:30am 14.2 - - - 1014.6 - 0.0 - - - - - - -
21/05:00am 14.3 - - - 1014.1 - 0.0 - - - - - - -
21/04:30am 14.6 - - - 1014.2 - 0.0 - - - - - - -
21/04:00am 14.8 - - - 1014.5 - 0.0 - - - - - - -
21/03:30am 14.8 - - - 1014.6 - 0.0 - - - - - - -
21/03:00am 15.5 - - - 1015.0 - 0.0 - - - - - - -
21/02:30am 15.7 - - - 1015.5 - 0.0 - - - - - - -
21/02:00am 15.8 - - - 1015.8 - 0.0 - - - - - - -
21/01:30am 16.0 - - - 1016.0 - 0.0 - - - - - - -
21/01:00am 16.2 - - - 1016.6 - 0.0 - - - - - - -
21/12:30am 16.5 - - - 1016.9 - 0.0 - - - - - - -
21/12:00am 16.7 - - - 1017.3 - 0.0 - - - - - - -
 
Date/Time
EDT
Temp

°C
Wind Pressure Rain
since 9am
mm
Weather Cloud Vis
km
Sea
Height
m
Swell
Dir
 
Speed
knots
Gust
knots
hPa Trend Height
m
Period
s
Dir
20/11:30pm 17.2 - - - 1017.3 - 0.0 - - - - - - -
20/11:00pm 17.6 - - - 1017.6 - 0.0 - - - - - - -
20/10:30pm 18.1 - - - 1017.7 - 0.0 - - - - - - -
20/10:00pm 18.5 - - - 1017.7 - 0.0 - - - - - - -
20/09:30pm 18.7 - - - 1017.4 - 0.0 - - - - - - -
20/09:00pm 18.6 - - - 1017.1 - 0.0 - - - - - - -
20/08:30pm 19.0 - - - 1017.2 - 0.0 - - - - - - -
20/08:00pm 19.2 - - - 1017.1 - 0.0 - - - - - - -
20/07:30pm 19.4 - - - 1016.9 - 0.0 - - - - - - -
20/07:00pm 19.9 - - - 1016.6 - 0.0 - - - - - - -
20/06:30pm 21.2 - - - 1016.4 - 0.0 - - - - - - -
20/06:00pm 21.6 - - - 1016.1 - 0.0 - - - - - - -
20/05:30pm 22.8 - - - 1016.2 - 0.0 - - - - - - -
20/05:00pm 22.1 - - - 1016.4 - 0.0 - - - - - - -
20/04:30pm 22.7 - - - 1016.5 - 0.0 - - - - - - -
20/04:00pm 22.9 - - - 1016.8 - 0.0 - - - - - - -
20/03:30pm 23.0 - - - 1017.1 - 0.0 - - - - - - -
20/03:00pm 22.4 - - - 1017.5 - 0.0 - - - - - - -
20/02:30pm 21.7 - - - 1017.9 - 0.0 - - - - - - -
20/02:00pm 22.1 - - - 1018.2 - 0.0 - - - - - - -
20/01:30pm 20.7 - - - 1018.4 - 0.0 - - - - - - -
20/01:00pm 20.2 - - - 1018.7 - 0.0 - - - - - - -
20/12:30pm 20.8 - - - 1018.9 - 0.0 - - - - - - -
20/12:00pm 18.9 - - - 1019.0 - 0.0 - - - - - - -
20/11:30am 18.4 - - - 1019.2 - 0.0 - - - - - - -
20/11:00am 19.3 - - - 1019.4 - 0.0 - - - - - - -
20/10:30am 18.4 - - - 1019.5 - 0.0 - - - - - - -
20/10:00am 17.3 - - - 1019.5 - 0.0 - - - - - - -
20/09:30am 16.7 - - - 1019.5 - 0.0 - - - - - - -
20/09:00am 16.4 - - - 1019.3 - 0.0 - - - - - - -
20/08:30am 15.5 - - - 1019.1 - 0.0 - - - - - - -
20/08:00am 14.3 - - - 1018.8 - 0.0 - - - - - - -
20/07:30am 13.4 - - - 1018.5 - 0.0 - - - - - - -
20/07:00am 12.6 - - - 1018.4 - 0.0 - - - - - - -
20/06:30am 12.8 - - - 1018.1 - 0.0 - - - - - - -
20/06:00am 12.9 - - - 1018.0 - 0.0 - - - - - - -
20/05:30am 13.3 - - - 1017.9 - 0.0 - - - - - - -
20/05:00am 13.5 - - - 1017.9 - 0.0 - - - - - - -
20/04:30am 13.6 - - - 1017.8 - 0.0 - - - - - - -
20/04:00am 13.9 - - - 1017.8 - 0.0 - - - - - - -
20/03:30am 14.1 - - - 1017.9 - 0.0 - - - - - - -
20/03:00am 14.5 - - - 1018.0 - 0.0 - - - - - - -
20/02:30am 14.6 - - - 1018.2 - 0.0 - - - - - - -
20/02:00am 15.1 - - - 1018.4 - 0.0 - - - - - - -
20/01:30am 15.1 - - - 1018.7 - 0.0 - - - - - - -
20/01:00am 15.5 - - - 1018.9 - 0.0 - - - - - - -
20/12:30am 15.7 - - - 1019.1 - 0.0 - - - - - - -
20/12:00am 15.8 - - - 1019.5 - 0.0 - - - - - - -
 
Date/Time
EDT
Temp

°C
Wind Pressure Rain
since 9am
mm
Weather Cloud Vis
km
Sea
Height
m
Swell
Dir
 
Speed
knots
Gust
knots
hPa Trend Height
m
Period
s
Dir
19/11:30pm 15.9 - - - 1019.6 - 0.0 - - - - - - -
19/11:00pm 16.4 - - - 1019.8 - 0.0 - - - - - - -
19/10:30pm 16.4 - - - 1019.8 - 0.0 - - - - - - -
19/10:00pm 16.2 - - - 1019.7 - 0.0 - - - - - - -
19/09:30pm 16.2 - - - 1019.5 - 0.0 - - - - - - -
19/09:00pm 16.3 - - - 1019.5 - 0.0 - - - - - - -
19/08:30pm 16.8 - - - 1019.5 - 0.0 - - - - - - -
19/08:00pm 17.1 - - - 1019.3 - 0.0 - - - - - - -
19/07:30pm 17.8 - - - 1018.9 - 0.0 - - - - - - -
19/07:00pm 17.9 - - - 1018.4 - 0.0 - - - - - - -
19/06:30pm 18.9 - - - 1018.2 - 0.0 - - - - - - -
19/06:00pm 19.4 - - - 1017.8 - 0.0 - - - - - - -
19/05:30pm 19.1 - - - 1017.7 - 0.0 - - - - - - -
19/05:00pm 19.6 - - - 1017.7 - 0.0 - - - - - - -
19/04:30pm 19.8 - - - 1017.6 - 0.0 - - - - - - -
19/04:00pm 19.8 - - - 1017.5 - 0.0 - - - - - - -
19/03:30pm 19.9 - - - 1017.4 - 0.0 - - - - - - -
19/03:00pm 18.8 - - - 1017.4 - 0.0 - - - - - - -
19/02:30pm 19.3 - - - 1017.6 - 0.0 - - - - - - -
19/02:00pm 18.9 - - - 1017.6 - 0.0 - - - - - - -
19/01:30pm 19.5 - - - 1017.5 - 0.0 - - - - - - -
19/01:00pm 19.8 - - - 1017.8 - 0.0 - - - - - - -
19/12:30pm 18.5 - - - 1017.8 - 0.0 - - - - - - -
19/12:00pm 17.3 - - - 1017.7 - 0.0 - - - - - - -
19/11:30am 17.5 - - - 1017.5 - 0.0 - - - - - - -
19/11:00am 16.0 - - - 1017.5 - 0.0 - - - - - - -
19/10:30am 17.5 - - - 1017.4 - 0.0 - - - - - - -
19/10:00am 16.3 - - - 1016.9 - 0.0 - - - - - - -
19/09:30am 16.6 - - - 1016.9 - 0.0 - - - - - - -
19/09:00am 16.6 - - - 1016.6 - 1.8 Fine Partly cloudy 30 - - - -
19/08:30am 15.1 - - - 1016.3 - 1.8 - - - - - - -
19/08:00am 13.9 - - - 1016.2 - 1.8 - - - - - - -
19/07:30am 12.2 - - - 1015.9 - 1.8 - - - - - - -
19/07:00am 11.7 - - - 1015.7 - 1.8 - - - - - - -
19/06:30am 11.5 - - - 1015.3 - 1.8 - - - - - - -
19/06:00am 11.4 - - - 1015.0 - 1.8 - - - - - - -
19/05:30am 11.4 - - - 1014.9 - 1.8 - - - - - - -
19/05:00am 11.9 - - - 1014.6 - 1.8 - - - - - - -
19/04:30am 12.2 - - - 1014.1 - 1.8 - - - - - - -
19/04:00am 12.3 - - - 1013.8 - 1.8 - - - - - - -
19/03:30am 12.6 - - - 1013.6 - 1.8 - - - - - - -
19/03:00am 12.9 - - - 1013.5 - 1.8 - - - - - - -
19/02:30am 13.0 - - - 1013.5 - 1.8 - - - - - - -
19/02:00am 13.4 - - - 1013.5 - 1.8 - - - - - - -
19/01:30am 13.6 - - - 1013.5 - 1.8 - - - - - - -
19/01:00am 14.2 - - - 1013.5 - 1.8 - - - - - - -
19/12:30am 14.5 - - - 1013.4 - 1.8 - - - - - - -
19/12:00am 15.0 - - - 1013.2 - 1.8 - - - - - - -
 
Date/Time
EDT
Temp

°C
Wind Pressure Rain
since 9am
mm
Weather Cloud Vis
km
Sea
Height
m
Swell
Dir
 
Speed
knots
Gust
knots
hPa Trend Height
m
Period
s
Dir
18/11:30pm 15.3 - - - 1013.3 - 1.8 - - - - - - -

Other Formats:

Comma delimited format used in spreadsheet applications
http://www.bom.gov.au/fwo/IDV60701/IDV60701.94868.axf

JavaScript Object Notation format (JSON) in row-major order
http://www.bom.gov.au/fwo/IDV60701/IDV60701.94868.json